Regional Weather Roundup
Issued by NWS

Home | Current Version | Previous Version | Graphics & Text | Print | Product List | Glossary On
Versions: 1 2 3 4 5 6 7 8 9 10 11 12 13 14 15 16 17 18 19 20 21 22 23 24 25 26 27 28 29 30 31 32 33 34 35 36 37 38 39 40 41 42 43 44 45 46 47 48 49 50
407
ASUS43 KIND 221009
RWRIN

WEATHER ROUNDUP FOR INDIANA
NATIONAL WEATHER SERVICE INDIANAPOLIS IN
600 AM EDT SUN OCT 22 2017

NOTE: "FAIR" INDICATES FEW OR NO CLOUDS BELOW 12,000 FEET WITH NO
SIGNIFICANT WEATHER AND/OR OBSTRUCTIONS TO VISIBILITY.

* - STATION DOES NOT REPORT WEATHER SUCH AS PRECIPITATION OR FOG.

+ - STATION NOT QUALITY CONTROLLED BY THE NATIONAL WEATHER SERVICE.
    USE DATA WITH CAUTION...ESPECIALLY DEWPOINT AND RELATIVE
    HUMIDITY OBSERVATIONS.

INZ001>003-010>013-019-020-221100-
NORTHWEST INDIANA

CITY           SKY/WX    TMP DP  RH WIND       PRES   REMARKS
GARY /AIRPORT/ MOCLDY    66  57  72 S14G26    29.98S
KNOX *+        MOCLDY    63  50  63 S12G17    30.02S
LA PORTE +     PTCLDY    62  51  66 S8        30.02F
MICHIGAN CITY+ MOCLDY    63  50  63 S7        30.00F
MONTICELLO +   CLOUDY    61  49  64 SE6       30.02S
RENSSELAER +   CLOUDY    63  45  51 SE13      30.00F
VALPARAISO     CLOUDY    65  53  65 S7        30.01F

$$

LMZ046-743>745-221100-
SOUTHERN LAKE MICHIGAN

STATION/POSITION TIME  TEMP    WIND        PRES    WAVE
                       AIR SEA DIR/SP/G            HT
                 (UTC) (F)     (DEG/KT/KT) (MB)    (FT)
BURNS HARBOR     1003   67     180/ 15     1015.2
MICHIGAN CITY    0940   65     160/ 12/ 15   N/A
5NW MICH CITY    1000   63 58  180/ 16/ 19   N/A     2

$$

INZ004-005-014>016-021>024-221100-
NORTH CENTRAL INDIANA

CITY           SKY/WX    TMP DP  RH WIND       PRES   REMARKS
GOSHEN         PTCLDY    58  46  64 SE8       30.07F
LOGANSPORT +   CLOUDY    59  48  67 S9        30.06S
PERU/GRISSOM   CLOUDY    59  49  68 S10       30.06F
SOUTH BEND     CLEAR     60  50  69 SE9       30.04F
WARSAW +       PTCLDY    61  46  59 S3        30.08R

$$

INZ006>009-017-018-025>027-221100-
NORTHEAST INDIANA

CITY           SKY/WX    TMP DP  RH WIND       PRES   REMARKS
AUBURN +       CLEAR     55  45  67 CALM      30.11F
FORT WAYNE     PTCLDY    56  47  71 SE3       30.11F
HUNTINGTON +   PTCLDY    58  47  68 S6        30.10S
KENDALLVILLE + CLEAR     58  47  68 S7        30.10S

$$

INZ028-029-035-036-043>045-051>053-221100-
WEST CENTRAL INDIANA

CITY           SKY/WX    TMP DP  RH WIND       PRES   REMARKS
GREENCASTLE +  CLOUDY    57  48  72 SE8       30.07F
LAFAYETTE      PTCLDY    61  51  70 S8        30.02F
TERRE HAUTE    CLOUDY    64  53  67 S14       30.03F

$$

INZ030>032-037>040-046>048-054>057-064-065-221100-
CENTRAL INDIANA

CITY           SKY/WX    TMP DP  RH WIND       PRES   REMARKS
CP ATTERBURY + PTCLDY    54  48  82 S3        30.12S
FISHERS *+     CLEAR     57  52  82 S10       30.10S
FRANKFORT +    PTCLDY    63  52  67 S5        30.06F
GREENWOOD *+   CLOUDY    60  51  72 SE9       30.11S
INDIANAPOLIS   CLOUDY    57  49  74 SE10      30.09F
-EAGLE CREEK   CLOUDY    58  48  69 SE6       30.08F
KOKOMO +       CLEAR     59  49  69 S10       30.08F
MARION +       PTCLDY    57  48  72 SE7       30.11S
MT COMFORT *+  CLEAR     57  52  82 S8        30.11F
SHELBYVILLE    CLOUDY    62  48  60 S12       30.11F
ZIONSVILLE +   CLEAR     57  49  74 S13       30.09S

$$

INZ033-034-041-042-049-050-058-059-221100-
EAST CENTRAL INDIANA

CITY           SKY/WX    TMP DP  RH WIND       PRES   REMARKS
MUNCIE         CLOUDY    62  48  60 S9        30.11F
RICHMOND +     CLEAR     52  46  82 S8        30.17F

$$

INZ060-061-067>069-081>083-085>088-221100-
SOUTHWEST INDIANA

CITY           SKY/WX    TMP DP  RH WIND       PRES   REMARKS
EVANSVILLE     CLOUDY    62  53  72 SE5       30.07S
HUNTINGBURG +  PTCLDY    61  53  75 SE7       30.09S
WASHINGTON +   CLOUDY    62  51  67 S13       30.07R

$$

INZ062-063-066-070>080-084-089>092-221100-
SOUTH CENTRAL AND SOUTHEAST INDIANA

CITY           SKY/WX    TMP DP  RH WIND       PRES   REMARKS
BEDFORD +      PTCLDY    57  48  72 SE5       30.11S
BLOOMINGTON    PTCLDY    58  49  72 S6        30.09S
MADISON *+     CLEAR     59  48  67 SE5       30.16S
NORTH VERNON + PTCLDY    57  48  72 SE5       30.15S
SEYMOUR +      CLEAR     57  48  72 SE6       30.13S

$$





USA.gov is the U.S. government's official web portal to all federal, state and local government web resources and services.